TimeCDT,TemperatureF,Dew PointF,Humidity,Sea Level PressureIn,VisibilityMPH,Wind Direction,Wind SpeedMPH,Gust SpeedMPH,PrecipitationIn,Events,Conditions,WindDirDegrees,DateUTC
12:52 AM,63.0,52.0,67,30.18,-9999.0,SE,11.5,-,N/A,,Unknown,130,2013-08-04 05:52:00
1:52 AM,62.1,52.0,70,30.11,-9999.0,SE,12.7,21.9,N/A,,Unknown,130,2013-08-04 06:52:00
2:52 AM,60.1,53.1,78,30.10,-9999.0,ESE,9.2,-,N/A,,Unknown,110,2013-08-04 07:52:00
3:52 AM,59.0,54.0,83,30.08,-9999.0,SE,10.4,-,N/A,,Unknown,130,2013-08-04 08:52:00
4:52 AM,57.0,53.1,87,30.09,-9999.0,SE,9.2,-,N/A,,Unknown,130,2013-08-04 09:52:00
5:52 AM,55.9,53.1,90,30.08,-9999.0,ESE,9.2,-,N/A,,Unknown,120,2013-08-04 10:52:00
6:52 AM,57.9,53.1,84,30.08,-9999.0,SE,11.5,-,N/A,,Unknown,140,2013-08-04 11:52:00
7:52 AM,60.1,54.0,80,30.07,-9999.0,SE,10.4,-,N/A,,Unknown,130,2013-08-04 12:52:00
8:52 AM,63.0,57.0,81,30.07,-9999.0,SSE,13.8,-,N/A,,Unknown,150,2013-08-04 13:52:00
9:52 AM,62.1,57.0,84,30.08,-9999.0,SSE,13.8,-,N/A,,Unknown,160,2013-08-04 14:52:00
10:52 AM,63.0,57.9,84,30.07,-9999.0,South,13.8,-,N/A,,Unknown,180,2013-08-04 15:52:00
11:52 AM,63.0,59.0,87,30.06,-9999.0,South,12.7,-,N/A,,Unknown,180,2013-08-04 16:52:00
12:52 PM,64.0,59.0,84,30.03,-9999.0,South,12.7,-,N/A,,Unknown,180,2013-08-04 17:52:00
1:52 PM,66.9,60.1,79,30.01,-9999.0,SSW,10.4,-,N/A,,Unknown,200,2013-08-04 18:52:00
2:52 PM,68.0,61.0,78,30.01,-9999.0,SSW,11.5,-,N/A,,Unknown,200,2013-08-04 19:52:00
3:52 PM,69.1,62.1,78,30.00,-9999.0,SSW,6.9,-,N/A,,Unknown,210,2013-08-04 20:52:00
4:52 PM,73.0,63.0,71,29.96,-9999.0,South,6.9,-,N/A,,Unknown,190,2013-08-04 21:52:00
5:52 PM,73.0,63.0,71,29.95,-9999.0,Calm,Calm,-,N/A,,Unknown,0,2013-08-04 22:52:00
6:52 PM,72.0,63.0,73,29.95,-9999.0,North,5.8,-,N/A,,Unknown,360,2013-08-04 23:52:00
7:52 PM,70.0,63.0,78,29.94,-9999.0,North,4.6,-,N/A,,Unknown,10,2013-08-05 00:52:00
8:52 PM,64.9,62.1,90,29.96,-9999.0,North,5.8,-,N/A,,Unknown,350,2013-08-05 01:52:00
9:52 PM,64.9,62.1,90,29.96,-9999.0,North,3.5,-,N/A,,Unknown,360,2013-08-05 02:52:00
10:52 PM,60.1,57.9,93,29.96,-9999.0,North,3.5,-,N/A,,Unknown,350,2013-08-05 03:52:00
11:52 PM,57.9,57.0,97,29.96,-9999.0,NNW,6.9,-,N/A,,Unknown,340,2013-08-05 04:52:00